Tracking 19281 objects as of 16-Nov-2018
HD Live streaming from Space Station
objects crossing your sky now

INSAT 2A

Track INSAT 2A now!
INSAT 2A is classified as:


NORAD ID: 22027
Int'l Code: 1992-041A
Perigee: 35,782.7 km
Apogee: 35,865.5 km
Inclination: 14.8 °
Period: 1,437.7 minutes
Semi major axis: 42195 km
RCS: 1.9952 m2 (large)
Launch date: July 9, 1992
Source: India (IND)
Launch site: FRENCH GUIANA (FRGUI)
aabbcc
Your satellite tracking list
Your tracking list is empty




NASA's NSSDC Master Catalog

Two Line Element Set (TLE):
1 22027U 92041A   18320.28369453  .00000084  00000-0  00000+0 0  9994
2 22027  14.7586  14.9914 0009813 244.0817 120.2433  1.00163453 96284
Source of the keplerian elements: AFSPC